Location: Camp at the Woods
(43.2055°N, 93.0905°W)
Time: 08:51:28
(UTC+00:00)

BlueWalker 3 - Pass Details

Date: 20 April 2024
Orbit: 482 x 494 km, 53.2° (Epoch: 22 May)

Event Time Altitude Azimuth Distance (km) Brightness Sun altitude
Rises 02:25:41 0° 246° (WSW) 2,562 6.0 -14.9°
Reaches altitude 10° 02:27:54 10° 251° (WSW) 1,686 5.1 -15.2°
Maximum altitude 02:31:38 52° 329° (NNW) 619 2.7 -15.8°
Drops below altitude 10° 02:35:23 10° 47° (NE) 1,700 4.5 -16.4°
Enters shadow 02:37:18 - 52° (NE) 2,455 5.3 -16.6°
